Terminal Aerodrome Forecast
Issued by NWS Upton, NY

Current Version | Previous Version | Text Only | Print | Product List | Glossary On
Versions: 1 2 3 4 5 6 7 8 9 10 11 12 13 14 15 16 17 18 19 20 21 22 23 24 25 26 27 28 29 30 31 32 33 34
000
FTUS41 KOKX 061531 AAB
TAFISP
TAF AMD
KISP 061531Z 0616/0712 07015G21KT 5SM -SHRADZ BR OVC009
     FM061900 08020G26KT 2SM -SHRADZ BR OVC005
     FM070000 08011KT 3/4SM -DZ BR OVC004
     FM070600 08006KT 2SM -DZ BR OVC004=

USA.gov is the U.S. government's official web portal to all federal, state and local government web resources and services.